Weather History for Spirit of St Louis, MO

Change the Weather History Date:

Sunday, July 28, 2013

  Actual Average Record
Temperature  
Mean Temperature 65 °F -  
Max Temperature 81 °F 86 °F 99 °F (2011)
Min Temperature 50 °F 65 °F 50 °F (2013)
Growing Degree Days 15 (Base 50)    
Moisture  
Dew Point 52 °F    
Average Humidity 77    
Maximum Humidity 100    
Minimum Humidity 34    
Precipitation  
Precipitation 0.00 in - - ()
Sea Level Pressure  
Sea Level Pressure 30.02 in    
Wind  
Wind Speed 2 mph (WSW)    
Max Wind Speed 13 mph    
Max Gust Speed -    
Visibility 7 miles    
Events Fog    
Averages and records for this station are not official NWS values.
T = Trace of Precipitation, MM = Missing Value Source: NWS Daily Summary

Daily Weather History Graph

Daily Weather History Graph

Search for Another Location

Airport:

Trip Planner

Search our weather history database for the weather conditions in past years. The results will help you decide how hot, cold, wet, or windy it might be!

Date:

Astronomy

Jul. 28, 2013 Rise Set
Actual Time 6:00 AM CDT 8:16 PM CDT
Civil Twilight 5:31 AM CDT 8:46 PM CDT
Nautical Twilight 4:54 AM CDT 9:23 PM CDT
Astronomical Twilight 4:13 AM CDT 10:03 PM CDT
Moon 11:44 PM CDT (7/28) 12:38 PM CDT (7/28)
Length of Visible Light 15h 15m
Length of Day
14h 15m
Waning Gibbous, 60% of the Moon is Illuminated
Jul 28
Waning Gibbous
Jul 29
Last Quarter
Aug 6
New
Aug 14
First Quarter
Aug 20
Full

Hourly Weather History & Observations

Time (CDT) Temp. Dew Point Humidity Pressure Visibility Wind Dir Wind Speed Gust Speed Precip Events Conditions
12:54 AM 55.0 °F 53.1 °F 93% 29.99 in 10.0 mi Calm Calm - N/A   Clear
1:54 AM 53.1 °F 51.1 °F 93% 30.01 in 10.0 mi WSW 3.5 mph - N/A   Clear
2:54 AM 53.1 °F 51.1 °F 93% 30.01 in 10.0 mi Calm Calm - N/A   Clear
3:54 AM 53.1 °F 51.1 °F 93% 30.02 in 2.0 mi Calm Calm - N/A   Clear
4:07 AM 53.6 °F 51.8 °F 94% 30.02 in 8.0 mi Calm Calm - N/A   Clear
4:54 AM 52.0 °F 50.0 °F 93% 30.00 in 7.0 mi Calm Calm - N/A   Clear
5:02 AM 51.8 °F 50.0 °F 94% 30.01 in 1.8 mi Calm Calm - N/A   Clear
5:11 AM 51.8 °F 50.0 °F 94% 30.02 in 3.0 mi Calm Calm - N/A   Clear
5:19 AM 51.8 °F 51.8 °F 100% 30.02 in 1.8 mi Calm Calm - N/A   Clear
5:29 AM 51.8 °F 50.0 °F 94% 30.02 in 4.0 mi Calm Calm - N/A   Clear
5:54 AM 50.0 °F 48.9 °F 96% 30.02 in 10.0 mi Calm Calm - N/A   Clear
6:29 AM 50.0 °F 48.2 °F 94% 30.04 in 4.0 mi WSW 4.6 mph - N/A   Scattered Clouds
6:31 AM 51.8 °F 48.2 °F 88% 30.04 in 1.8 mi WSW 4.6 mph - N/A   Scattered Clouds
6:38 AM 51.8 °F 50.0 °F 94% 30.04 in 0.2 mi WSW 3.5 mph - N/A Fog Fog
6:46 AM 51.8 °F 51.8 °F 100% 30.04 in 0.2 mi West 3.5 mph - N/A Fog Fog
6:54 AM 53.1 °F 52.0 °F 96% 30.03 in 0.2 mi Calm Calm - N/A Fog Fog
7:09 AM 53.6 °F 53.6 °F 100% 30.04 in 0.5 mi Calm Calm - N/A Fog Fog
7:21 AM 53.6 °F 53.6 °F 100% 30.04 in 1.2 mi Calm Calm - N/A   Overcast
7:27 AM 53.6 °F 53.6 °F 100% 30.04 in 2.0 mi Calm Calm - N/A   Mostly Cloudy
7:29 AM 53.6 °F 53.6 °F 100% 30.04 in 3.0 mi Calm Calm - N/A   Partly Cloudy
7:54 AM 57.9 °F 55.0 °F 90% 30.04 in 10.0 mi Calm Calm - N/A   Clear
8:54 AM 66.0 °F 55.9 °F 70% 30.04 in 10.0 mi Calm Calm - N/A   Partly Cloudy
9:54 AM 71.1 °F 53.1 °F 53% 30.03 in 10.0 mi SW 3.5 mph - N/A   Scattered Clouds
10:54 AM 73.9 °F 50.0 °F 43% 30.03 in 10.0 mi WSW 6.9 mph - N/A   Clear
11:54 AM 75.0 °F 48.9 °F 40% 30.02 in 10.0 mi Variable 5.8 mph - N/A   Scattered Clouds
12:54 PM 78.1 °F 48.0 °F 35% 30.01 in 10.0 mi WNW 12.7 mph - N/A   Scattered Clouds
1:54 PM 79.0 °F 48.9 °F 35% 30.00 in 10.0 mi WSW 9.2 mph - N/A   Scattered Clouds
2:54 PM 80.1 °F 48.9 °F 34% 29.99 in 10.0 mi WSW 12.7 mph - N/A   Scattered Clouds
3:54 PM 80.1 °F 48.9 °F 34% 29.99 in 10.0 mi West 11.5 mph - N/A   Scattered Clouds
4:54 PM 80.1 °F 48.9 °F 34% 29.99 in 10.0 mi WSW 8.1 mph - N/A   Mostly Cloudy
5:54 PM 79.0 °F 54.0 °F 42% 29.99 in 10.0 mi WSW 6.9 mph - N/A   Mostly Cloudy
6:54 PM 75.0 °F 54.0 °F 48% 30.00 in 10.0 mi SW 4.6 mph - N/A   Scattered Clouds
7:54 PM 71.1 °F 59.0 °F 66% 30.01 in 10.0 mi Calm Calm - N/A   Scattered Clouds
8:54 PM 64.9 °F 55.9 °F 73% 30.02 in 10.0 mi Calm Calm - N/A   Clear
9:54 PM 64.9 °F 57.0 °F 75% 30.04 in 10.0 mi Calm Calm - N/A   Clear
10:54 PM 62.1 °F 57.0 °F 84% 30.04 in 10.0 mi Calm Calm - N/A   Clear
11:54 PM 60.1 °F 55.0 °F 83% 30.05 in 10.0 mi Calm Calm - N/A   Clear